Preview of NWS' New Version of Forecast
This preview is not operational and should not be used for support decisions.

Regional Weather Roundup (RWR)

Issued by National Weather Service (NWS)

                            
000
ASUS43 KBIS 200710
RWRND 

NORTH DAKOTA REGIONAL WEATHER ROUNDUP
NATIONAL WEATHER SERVICE BISMARCK ND
200 AM CDT TUE AUG 20 2019

NOTE: "FAIR" INDICATES FEW OR NO CLOUDS BELOW 12,000 FEET WITH NO
SIGNIFICANT WEATHER AND/OR OBSTRUCTIONS TO VISIBILITY.


NDZ001>003-009>011-017-200800-
NORTHWEST NORTH DAKOTA
  
CITY           SKY/WX    TMP DP  RH WIND       PRES   REMARKS
WILLISTON      CLEAR     63  52  67 N18G32    29.96R                  
MINOT          CLEAR     66  57  72 NW17G28   29.84R                  
MINOT AFB      CLEAR     61  55  79 N17       29.84R                  
$$
 
NDZ018>021-031>035-040>046-200800-
SOUTHWEST NORTH DAKOTA
  
CITY           SKY/WX    TMP DP  RH WIND       PRES   REMARKS
BISMARCK       CLEAR     73  70  90 VRB5      29.86R                  
DICKINSON      CLEAR     61  50  67 W8        29.92R                  
GARRISON         N/A     64  59  83 NW12      29.84R                  
HETTINGER ARPT MOCLDY    57  53  86 NW3       29.95S                  
$$
 
NDZ004>008-012>016-024-026-027-054-200800-
NORTHEAST NORTH DAKOTA
  
CITY           SKY/WX    TMP DP  RH WIND       PRES   REMARKS
GRAND FORKS    MOCLDY    69  63  81 S8        29.81R                  
DEVILS LAKE    TSTM      64  62  93 E6        29.84F                  
$$
 
NDZ022-023-025-028>030-036>039-047>053-200800-
SOUTHEAST NORTH DAKOTA
  
CITY           SKY/WX    TMP DP  RH WIND       PRES   REMARKS
FARGO          MOCLDY    72  67  84 S8        29.86R                  
JAMESTOWN      PTCLDY    72  69  90 S10       29.83F                  
$$